Location: Cedar Brake
(32.2526°N, 97.8459°W)
Time: 17:10:06
(UTC+00:00)

USA 32 - Pass Details

Date: 22 April 2026
Orbit: 776 x 778 km, 85.0° (Epoch: 9 May)

Event Time Altitude Azimuth Distance (km) Brightness Sun altitude
Rises 01:50:51 0° 166° (SSE) 3,242 6.9 -10.0°
Reaches altitude 10° 01:53:16 10° 160° (SSE) 2,319 6.1 -10.5°
Maximum altitude 01:58:12 45° 89° (E) 1,048 4.3 -11.4°
Drops below altitude 10° 02:03:10 10° 17° (NNE) 2,333 6.6 -12.4°
Sets 02:05:36 0° 12° (NNE) 3,264 7.4 -12.9°
